{"data":{"norad_id":53829,"intl_designator":"2022-114M","name":"STARLINK-4759","alt_names":[],"object_type":"PAYLOAD","status":"ACTIVE","operator":null,"country":"US","launch_date":"2022-09-19","launch_site_code":"AFETR","launch_vehicle":null,"mission":null,"orbit_class":"UNKNOWN","rcs_meters":null,"size_class":null,"mass_kg":null,"dimensions":null,"purposes":["comms"],"wikipedia_slug":null,"has_3d_model":false,"image_url":null,"decayed_at":null,"tle_current":{"epoch":"2026-05-24T21:11:26.677824Z","epoch_age_seconds":84927,"freshness":"FRESH","line1":"1 53829U 22114M   26144.88294766  .00000899  00000+0  74545-4 0  9998","line2":"2 53829  53.2149 322.0996 0001342  88.9070 271.2076 15.08844033204339","mean_motion":15.08844033,"eccentricity":0.0001342,"inclination_deg":53.2149,"raan_deg":322.0996,"arg_perigee_deg":88.907,"mean_anomaly_deg":271.2076,"bstar":7.4545e-5,"rev_number":20433,"period_min":95.437299582044,"perigee_km":538.8026838301,"apogee_km":540.65943961787,"semimajor_km":6917.868061724,"source":"CELESTRAK","updated_at":"2026-05-25T13:38:17.571436Z"}}}